Location: Lake Zurich
(42.1970°N, 88.0930°W)
Time: 01:32:56
(UTC-05:00)

Amateur Radio Satellites - All Passes

Search period start: 27 July 2016 01:02
Search period end: 28 July 2016 01:02
Location: Lake Zurich, 42.1970°N, 88.0930°W

Satellite Date Start Highest point End Downlink Frequencies (MHz)
Time Altitude Azimuth
ISS 27 Jul 01:19:47 01:21:53 16° 4° (N) 01:23:59 145.825
JAS-2 27 Jul 01:33:21 01:38:40 89° 122° (ESE) 01:44:24 435.910
NANOSAT C BR1 27 Jul 01:40:06 01:43:11 20° 294° (WNW) 01:46:16 145.865
Cosmos 2499 27 Jul 01:42:38 01:48:21 21° 63° (ENE) 01:53:46 435.465 / 435.565
SWISSCUBE 27 Jul 01:43:08 01:47:30 37° 69° (ENE) 01:51:54 437.505
DUCHIFAT 1 27 Jul 01:44:38 01:47:38 19° 295° (WNW) 01:50:37 145.980
TISAT 1 27 Jul 01:53:32 01:57:23 36° 262° (W) 02:01:18 437.305
BUGSAT 1 27 Jul 02:00:08 02:03:43 27° 292° (WNW) 02:07:17 437.445
QB50P1 27 Jul 02:03:45 02:05:11 11° 299° (WNW) 02:06:36 145.935-145.965
BEESAT 27 Jul 02:04:13 02:08:52 54° 72° (ENE) 02:13:33 436.000
Gurwin Techsat 1B 27 Jul 02:08:01 02:12:23 25° 94° (E) 02:16:43 435.225
POPSAT HIP 1 27 Jul 02:11:22 02:11:31 10° 300° (WNW) 02:11:42 437.405
BEESAT 3 27 Jul 02:24:18 02:27:01 17° 43° (NE) 02:29:44 437.485
ITAMSAT 1 27 Jul 02:26:39 02:28:05 11° 88° (E) 02:29:31 435.822/435.867
ITUPSAT 1 27 Jul 02:26:57 02:31:46 88° 71° (ENE) 02:36:36 437.325
Oscar 19 27 Jul 02:29:14 02:34:27 86° 104° (ESE) 02:39:38 437.125/150
BEESAT 2 27 Jul 02:30:24 02:32:12 13° 39° (NE) 02:34:00 435.950
GONETS M04 27 Jul 02:41:49 02:50:39 72° 80° (E) 02:59:28
MOZHAYETS 4 27 Jul 02:49:09 02:52:30 20° 65° (ENE) 02:55:50
ISS 27 Jul 02:56:05 02:59:03 31° 24° (NNE) 03:02:01 145.825
STARS 27 Jul 02:58:27 03:00:01 12° 60° (ENE) 03:01:35 437.465
JAS-2 27 Jul 03:20:59 03:23:07 12° 301° (WNW) 03:25:17 435.910
SWISSCUBE 27 Jul 03:21:29 03:25:22 24° 265° (W) 03:29:16 437.505
PCSat 27 Jul 03:28:54 03:33:11 23° 45° (NE) 03:37:26 145.827
Cosmos 2499 27 Jul 03:34:35 03:42:29 76° 265° (W) 03:49:45 435.465 / 435.565
CUSAT 1 27 Jul 03:37:27 03:41:24 39° 98° (E) 03:44:32 437.405
BEESAT 27 Jul 03:43:55 03:46:57 17° 268° (W) 03:50:02 436.000
Gurwin Techsat 1B 27 Jul 03:47:28 03:52:28 42° 291° (WNW) 03:57:27 435.225
KKS-1 27 Jul 03:52:00 03:56:26 82° 74° (ENE) 04:00:55 437.445
AO-7 27 Jul 03:54:30 04:02:07 37° 98° (E) 04:09:38 29.400- 29.500
DANDE 27 Jul 03:56:46 04:01:36 29° 96° (E) 04:05:25 436.750
BEESAT 3 27 Jul 04:01:07 04:05:00 54° 241° (WSW) 04:08:51 437.485
ITAMSAT 1 27 Jul 04:03:00 04:08:14 87° 283° (WNW) 04:13:25 435.822/435.867
BEESAT 2 27 Jul 04:06:36 04:10:38 90° 223° (SW) 04:14:37 435.950
CUBESAT XI-V 27 Jul 04:08:22 04:11:14 17° 63° (ENE) 04:14:07 437.345
Oscar 19 27 Jul 04:10:39 04:13:02 13° 301° (WNW) 04:15:24 437.125/150
MOZHAYETS 4 27 Jul 04:24:54 04:29:21 44° 262° (W) 04:33:47
AIST 2 27 Jul 04:29:00 04:30:42 12° 37° (NE) 04:32:24 435.215
STARS 27 Jul 04:31:21 04:35:44 76° 257° (WSW) 04:40:10 437.465
ISS 27 Jul 04:32:28 04:35:32 38° 222° (SW) 04:38:35 145.825
GONETS M04 27 Jul 04:39:57 04:46:36 25° 280° (W) 04:53:17
HORYU 2 27 Jul 05:07:11 05:10:49 24° 95° (E) 05:14:24 437.375
PCSat 27 Jul 05:11:39 05:17:01 63° 244° (WSW) 05:22:21 145.827
O/OREOS (USA 219) 27 Jul 05:20:34 05:23:09 15° 52° (NE) 05:25:44 437.305
CUSAT 1 27 Jul 05:22:16 05:23:20 11° 286° (WNW) 05:24:20 437.405
Cosmos 2499 27 Jul 05:31:11 05:33:57 12° 286° (WNW) 05:36:40 435.465 / 435.565
BRITE-PL 27 Jul 05:32:21 05:34:54 14° 91° (E) 05:37:32 437.365/2234.400
STRAND 1 27 Jul 05:35:48 05:36:23 10° 56° (NE) 05:36:57 437.568
DANDE 27 Jul 05:39:36 05:44:16 28° 283° (WNW) 05:47:59 436.750
CUBESAT XI-V 27 Jul 05:43:40 05:48:11 54° 260° (W) 05:52:43 437.345
ITAMSAT 1 27 Jul 05:44:52 05:46:53 12° 303° (WNW) 05:48:55 435.822/435.867
AO-7 27 Jul 05:47:04 05:55:04 52° 297° (WNW) 06:03:00 29.400- 29.500
NOAA 15 27 Jul 06:01:43 06:05:38 21° 93° (E) 06:09:32 137.62
AIST 2 27 Jul 06:05:41 06:09:53 79° 57° (ENE) 06:14:03 435.215
NOAA 18 27 Jul 06:15:49 06:19:59 21° 93° (E) 06:24:06 137.9125
DOVE 4 27 Jul 06:29:50 06:31:43 12° 88° (E) 06:33:38 437.250
RS-15 27 Jul 06:31:30 06:42:17 51° 110° (ESE) 06:53:38 29.354- 29.394
GOMX 1 27 Jul 06:34:02 06:38:22 28° 95° (E) 06:42:53 467.674
HORYU 2 27 Jul 06:43:23 06:47:24 33° 291° (WNW) 06:51:23 437.375
LilacSat-2 27 Jul 06:49:33 06:53:15 42° 98° (E) 06:56:54 437.200
Cubesat XI-IV 27 Jul 06:56:19 07:01:31 49° 100° (E) 07:06:40 437.490
O/OREOS (USA 219) 27 Jul 06:58:31 07:03:02 67° 251° (WSW) 07:07:33 437.305
BRITE-PL 27 Jul 07:08:56 07:13:42 68° 285° (WNW) 07:18:52 437.365/2234.400
STRAND 1 27 Jul 07:09:30 07:14:38 74° 74° (ENE) 07:19:47 437.568
SO-50 27 Jul 07:10:42 07:13:23 15° 108° (ESE) 07:16:03 436.795
CUTE-I 27 Jul 07:19:56 07:25:19 82° 105° (ESE) 07:30:38 437.470
HO-68 27 Jul 07:28:41 07:32:50 16° 89° (E) 07:36:57 435.675
NOAA 15 27 Jul 07:40:35 07:45:40 50° 290° (WNW) 07:50:44 137.62
AO-7 27 Jul 07:42:46 07:45:54 13° 318° (NW) 07:49:02 29.400- 29.500
NOAA 18 27 Jul 07:55:32 08:00:56 53° 290° (WNW) 08:06:17 137.9125
CANX-2 27 Jul 08:00:08 08:03:21 21° 93° (E) 08:06:33 2200.000
DOVE 4 27 Jul 08:04:47 08:09:57 86° 285° (WNW) 08:15:15 437.250
Cosmos 2491 27 Jul 08:10:23 08:18:33 41° 72° (ENE) 08:26:41 435.465 / 435.565
GOMX 1 27 Jul 08:11:51 08:16:27 38° 290° (WNW) 08:21:19 467.674
CUTE 1.7 + AOD 2 27 Jul 08:13:21 08:16:52 25° 95° (E) 08:20:21 437.475
CINEMA 3 27 Jul 08:17:07 08:21:51 40° 97° (E) 08:26:31 145.822/145.860
LilacSat-2 27 Jul 08:24:58 08:27:12 15° 295° (WNW) 08:29:25 437.200
Cubesat XI-IV 27 Jul 08:37:07 08:41:15 23° 297° (WNW) 08:45:20 437.490
PRISM 27 Jul 08:39:50 08:43:54 85° 78° (ENE) 08:48:00 437.425
RS-15 27 Jul 08:43:25 08:54:43 55° 315° (NW) 09:06:39 29.354- 29.394
SO-50 27 Jul 08:48:26 08:53:18 72° 305° (NW) 08:58:10 436.795
ANTELSAT 27 Jul 08:51:43 08:53:03 11° 59° (ENE) 08:54:23 437.575/2403.000
STRAND 1 27 Jul 08:51:52 08:54:21 13° 271° (W) 08:56:50 437.568
SEEDS 27 Jul 08:52:10 08:56:14 49° 99° (E) 09:00:15 437.485
CUTE-I 27 Jul 09:01:48 09:04:38 15° 301° (WNW) 09:07:28 437.470
UWE-3 27 Jul 09:02:54 09:06:36 23° 93° (E) 09:10:12 435.000/436.395/437.385
FUNcube-1 27 Jul 09:03:36 09:05:55 14° 89° (E) 09:08:14 145.935
COMPASS 1 27 Jul 09:04:00 09:08:00 46° 99° (E) 09:11:57 437.405
ZACube-1 27 Jul 09:04:17 09:06:56 15° 90° (E) 09:09:32 437.345
HO-68 27 Jul 09:14:12 09:21:27 89° 117° (ESE) 09:28:39 435.675
CUBEBUG 2 27 Jul 09:24:22 09:29:03 58° 100° (E) 09:33:35 437.445
Cosmos 2504 27 Jul 09:29:34 09:34:44 17° 76° (ENE) 09:39:53 435.465 / 435.565
TIGRISAT 27 Jul 09:30:31 09:34:18 25° 67° (ENE) 09:38:09 435.000
AAUSAT CUBESAT 2 27 Jul 09:32:14 09:36:21 78° 101° (ESE) 09:40:27 437.432
CANX-2 27 Jul 09:35:29 09:39:16 33° 290° (WNW) 09:43:02 2200.000
YUBILEINY 27 Jul 09:38:54 09:47:25 58° 91° (E) 09:56:01 435.215
Oscar 11 27 Jul 09:44:39 09:48:44 41° 98° (E) 09:52:48 145.826/435.025
DOVE 4 27 Jul 09:44:55 09:46:53 12° 300° (WNW) 09:48:53 437.250
UNISAT 6 27 Jul 09:46:19 09:50:35 38° 70° (ENE) 09:54:56 437.425
CUTE 1.7 + AOD 2 27 Jul 09:49:05 09:52:39 27° 291° (WNW) 09:56:13 437.475
AUBIESAT-1 27 Jul 09:53:34 09:55:16 12° 94° (E) 09:56:58 437.475
CINEMA 3 27 Jul 09:54:39 09:58:44 25° 294° (WNW) 10:02:47 145.822/145.860
DELFI C3 27 Jul 09:55:19 09:58:25 22° 94° (E) 10:01:31 145.870
Cosmos 2491 27 Jul 10:07:16 10:15:25 45° 272° (W) 10:23:35 435.465 / 435.565
QB50P2 27 Jul 10:12:57 10:14:39 12° 62° (ENE) 10:16:20 145.880/145.840
POLYITAN 1 27 Jul 10:15:29 10:17:16 12° 62° (ENE) 10:19:05 437.675
HUMSAT D 27 Jul 10:18:00 10:21:05 20° 93° (E) 10:24:08 437.325/437.525
ANTELSAT 27 Jul 10:24:21 10:28:59 88° 252° (WSW) 10:33:44 437.575/2403.000
SEEDS 27 Jul 10:29:07 10:31:31 15° 296° (WNW) 10:33:55 437.485
SO-50 27 Jul 10:32:03 10:34:38 14° 325° (NW) 10:37:13 436.795
FUNcube-1 27 Jul 10:38:08 10:42:33 56° 286° (WNW) 10:46:50 145.935
UWE-3 27 Jul 10:38:55 10:43:08 35° 290° (WNW) 10:47:13 435.000/436.395/437.385
ZACube-1 27 Jul 10:39:08 10:43:32 51° 287° (WNW) 10:47:48 437.345
COMPASS 1 27 Jul 10:40:42 10:43:10 16° 295° (WNW) 10:45:39 437.405
NANOSAT C BR1 27 Jul 10:56:19 11:00:01 30° 69° (ENE) 11:03:46 145.865
M-CUBED/EXP-1 PRIME 27 Jul 10:59:26 11:04:08 70° 107° (ESE) 11:08:49 437.505
DUCHIFAT 1 27 Jul 11:00:30 11:04:14 31° 70° (ENE) 11:08:01 145.980
RS-15 27 Jul 11:01:19 11:10:52 26° 346° (NNW) 11:20:42 29.354- 29.394
CUBEBUG 2 27 Jul 11:02:14 11:05:09 16° 297° (WNW) 11:08:01 437.445
HO-68 27 Jul 11:03:26 11:08:14 20° 306° (NW) 11:13:01 435.675
TIGRISAT 27 Jul 11:06:36 11:10:49 35° 264° (W) 11:15:07 435.000
BUGSAT 1 27 Jul 11:15:25 11:18:27 20° 66° (ENE) 11:21:32 437.445
Cosmos 2504 27 Jul 11:17:53 11:26:45 83° 95° (E) 11:35:37 435.465 / 435.565
QB50P1 27 Jul 11:18:17 11:22:25 56° 74° (ENE) 11:26:37 145.935-145.965
Oscar 11 27 Jul 11:21:34 11:24:34 19° 295° (WNW) 11:27:34 145.826/435.025
UNISAT 6 27 Jul 11:23:46 11:27:24 23° 267° (W) 11:31:06 437.425
POPSAT HIP 1 27 Jul 11:24:40 11:28:52 65° 74° (ENE) 11:33:07 437.405
AUBIESAT-1 27 Jul 11:25:31 11:30:11 77° 290° (WNW) 11:34:47 437.475
DELFI C3 27 Jul 11:29:54 11:33:15 27° 291° (WNW) 11:36:37 145.870
YUBILEINY 27 Jul 11:37:02 11:44:40 32° 291° (WNW) 11:52:24 435.215
QB50P2 27 Jul 11:45:39 11:49:52 68° 259° (WSW) 11:54:09 145.880/145.840
JAS-2 27 Jul 11:46:24 11:51:55 40° 69° (ENE) 11:56:57 435.910
POLYITAN 1 27 Jul 11:48:17 11:52:31 66° 259° (W) 11:56:48 437.675
HUMSAT D 27 Jul 11:53:00 11:56:48 34° 290° (WNW) 12:00:34 437.325/437.525
DX 1 27 Jul 11:56:24 11:59:13 17° 93° (E) 12:02:02 434.975-435.025
AISAT 27 Jul 11:56:30 12:00:10 25° 95° (E) 12:03:50 437.250
Oscar 19 27 Jul 12:09:37 12:12:56 18° 61° (ENE) 12:16:14 437.125/150
UKube-1 27 Jul 12:09:39 12:12:39 18° 93° (E) 12:15:38 .
ESTCUBE 1 27 Jul 12:31:28 12:35:59 84° 283° (WNW) 12:40:28 437.505/2401.250
NANOSAT C BR1 27 Jul 12:32:21 12:35:45 23° 265° (W) 12:39:12 145.865
M-CUBED/EXP-1 PRIME 27 Jul 12:35:19 12:38:05 16° 303° (WNW) 12:40:52 437.505
DUCHIFAT 1 27 Jul 12:36:37 12:39:58 22° 266° (W) 12:43:19 145.980
SPROUT 27 Jul 12:41:56 12:45:54 34° 97° (E) 12:49:49 437.525
AO-85 27 Jul 12:45:03 12:48:06 15° 108° (ESE) 12:51:07 145.980
VELOX 1 27 Jul 12:47:24 12:51:53 83° 106° (ESE) 12:56:19 145.980
CUBEBUG 1 27 Jul 12:48:11 12:52:36 82° 283° (WNW) 12:57:01 437.445
50 SAT 27 Jul 12:49:15 12:52:52 76° 284° (WNW) 12:56:26 437.505
BUGSAT 1 27 Jul 12:49:54 12:53:36 34° 263° (W) 12:57:24 437.445
QB50P1 27 Jul 12:56:36 12:58:33 13° 270° (W) 13:00:30 145.935-145.965
AUBIESAT-1 27 Jul 13:02:53 13:03:50 11° 306° (NW) 13:04:47 437.475
POPSAT HIP 1 27 Jul 13:03:53 13:05:05 11° 271° (W) 13:06:18 437.405
AO-7 27 Jul 13:07:23 13:10:50 13° 42° (NE) 13:14:16 29.400- 29.500
Cosmos 2504 27 Jul 13:14:25 13:21:09 23° 296° (WNW) 13:27:53 435.465 / 435.565
AIST 1 27 Jul 13:14:40 13:18:41 43° 93° (E) 13:22:44
RS-15 27 Jul 13:18:32 13:28:50 30° 22° (NNE) 13:39:10 29.354- 29.394
Gurwin Techsat 1B 27 Jul 13:29:22 13:34:20 42° 69° (ENE) 13:39:20 435.225
DX 1 27 Jul 13:31:27 13:35:38 45° 289° (WNW) 13:39:48 434.975-435.025
JAS-2 27 Jul 13:31:55 13:37:05 29° 264° (W) 13:41:50 435.910
AISAT 27 Jul 13:32:42 13:36:39 32° 291° (WNW) 13:40:36 437.250
TISAT 1 27 Jul 13:36:42 13:40:33 32° 97° (E) 13:44:21 437.305
ITAMSAT 1 27 Jul 13:43:51 13:47:37 21° 62° (ENE) 13:51:24 435.822/435.867
UKube-1 27 Jul 13:44:47 13:48:52 41° 289° (WNW) 13:52:55 .
Oscar 19 27 Jul 13:46:40 13:51:43 63° 258° (WSW) 13:56:49 437.125/150
GONETS M04 27 Jul 13:51:52 13:56:22 15° 75° (ENE) 14:00:52
BEESAT 27 Jul 14:05:40 14:07:49 13° 90° (E) 14:09:55 436.000
CUSAT 1 27 Jul 14:08:56 14:11:12 19° 77° (ENE) 14:13:47 437.405
SPROUT 27 Jul 14:18:17 14:21:37 22° 294° (WNW) 14:24:58 437.525
Cosmos 2499 27 Jul 14:20:43 14:26:12 18° 77° (ENE) 14:31:35 435.465 / 435.565
AO-85 27 Jul 14:22:40 14:28:03 79° 303° (WNW) 14:33:13 145.980
VELOX 1 27 Jul 14:26:33 14:27:40 11° 300° (WNW) 14:28:47 145.980
ITUPSAT 1 27 Jul 14:27:43 14:31:22 21° 94° (E) 14:34:59 437.325
AO-7 27 Jul 14:53:42 15:01:43 54° 64° (ENE) 15:09:48 29.400- 29.500
AIST 1 27 Jul 14:53:56 14:56:32 16° 290° (WNW) 14:59:09
Gurwin Techsat 1B 27 Jul 15:10:04 15:14:24 25° 266° (W) 15:18:47 435.225
TISAT 1 27 Jul 15:12:39 15:16:01 23° 293° (WNW) 15:19:23 437.305
SWISSCUBE 27 Jul 15:19:55 15:24:42 82° 103° (ESE) 15:29:27 437.505
ITAMSAT 1 27 Jul 15:21:33 15:26:40 55° 259° (W) 15:31:49 435.822/435.867
RS-15 27 Jul 15:31:51 15:44:13 68° 51° (NE) 15:56:24 29.354- 29.394
SO-50 27 Jul 15:40:02 15:43:20 19° 40° (NE) 15:46:33 436.795
BEESAT 27 Jul 15:41:18 15:46:04 68° 287° (WNW) 15:50:46 436.000
GONETS M04 27 Jul 15:43:00 15:51:40 81° 95° (E) 16:00:25
KKS-1 27 Jul 15:43:45 15:46:24 15° 92° (E) 15:49:01 437.445
CUSAT 1 27 Jul 15:51:01 15:53:05 16° 264° (W) 15:55:25 437.405
ITUPSAT 1 27 Jul 16:04:52 16:09:21 41° 290° (WNW) 16:13:47 437.325
HORYU 2 27 Jul 16:05:41 16:09:19 25° 66° (ENE) 16:12:58 437.375
AO-85 27 Jul 16:06:03 16:09:17 16° 322° (NW) 16:12:27 145.980
Cosmos 2499 27 Jul 16:09:11 16:18:06 87° 96° (E) 16:26:49 435.465 / 435.565
DANDE 27 Jul 16:16:53 16:18:58 21° 265° (W) 16:21:14 436.750
MOZHAYETS 4 27 Jul 16:19:17 16:23:35 40° 98° (E) 16:27:52
STARS 27 Jul 16:21:05 16:24:15 19° 93° (E) 16:27:24 437.465
Cubesat XI-IV 27 Jul 16:42:38 16:44:50 13° 57° (ENE) 16:47:02 437.490
BRITE-PL 27 Jul 16:45:04 16:47:08 14° 63° (ENE) 16:49:13 437.365/2234.400
AO-7 27 Jul 16:47:13 16:54:43 36° 262° (W) 17:02:17 29.400- 29.500
SWISSCUBE 27 Jul 16:59:56 17:01:48 12° 301° (WNW) 17:03:42 437.505
CUTE-I 27 Jul 17:04:19 17:08:04 20° 62° (ENE) 17:11:51 437.470
KKS-1 27 Jul 17:18:53 17:23:16 52° 288° (WNW) 17:27:37 437.445
SO-50 27 Jul 17:19:42 17:24:19 70° 240° (WSW) 17:28:46 436.795
NOAA 15 27 Jul 17:22:01 17:26:44 35° 68° (ENE) 17:31:28 137.62
LilacSat-2 27 Jul 17:32:17 17:35:23 23° 69° (ENE) 17:38:30 437.200
PHONESAT 2.4 27 Jul 17:33:17 17:36:04 32° 162° (SSE) 17:38:53 2401.200-2431.200
DOVE 4 27 Jul 17:37:27 17:38:20 11° 59° (ENE) 17:39:14 437.250
CUBESAT XI-V 27 Jul 17:39:42 17:43:54 34° 97° (E) 17:48:07 437.345
HORYU 2 27 Jul 17:41:39 17:45:42 33° 263° (W) 17:49:47 437.375
NOAA 18 27 Jul 17:42:09 17:47:20 43° 68° (ENE) 17:52:33 137.9125
GONETS M04 27 Jul 17:43:05 17:49:32 23° 297° (WNW) 17:56:06
GOMX 1 27 Jul 17:43:36 17:47:02 25° 67° (ENE) 17:50:37 467.674
RS-15 27 Jul 17:45:08 17:56:01 39° 254° (WSW) 18:06:46 29.354- 29.394
BEESAT 3 27 Jul 17:52:44 17:55:41 21° 112° (ESE) 17:58:38 437.485
STARS 27 Jul 17:56:35 18:00:47 41° 289° (WNW) 18:04:56 437.465
MOZHAYETS 4 27 Jul 17:57:04 18:00:30 21° 294° (WNW) 18:03:55
HO-68 27 Jul 17:59:40 18:03:20 15° 51° (NE) 18:07:01 435.675
BEESAT 2 27 Jul 18:00:51 18:02:47 13° 109° (ESE) 18:04:44 435.950
Cosmos 2499 27 Jul 18:05:51 18:12:18 22° 296° (WNW) 18:18:38 435.465 / 435.565
PCSat 27 Jul 18:12:59 18:16:02 15° 104° (ESE) 18:19:06 145.827
Cubesat XI-IV 27 Jul 18:18:41 18:24:04 85° 77° (ENE) 18:29:29 437.490
BRITE-PL 27 Jul 18:21:09 18:25:12 52° 260° (W) 18:29:17 437.365/2234.400
CUTE-I 27 Jul 18:42:20 18:47:39 60° 259° (W) 18:52:59 437.470
CANX-2 27 Jul 18:53:52 18:56:41 17° 65° (ENE) 18:59:29 2200.000
NOAA 15 27 Jul 19:01:58 19:06:31 30° 264° (W) 19:11:05 137.62
LilacSat-2 27 Jul 19:06:19 19:09:35 26° 265° (W) 19:12:53 437.200
CUTE 1.7 + AOD 2 27 Jul 19:06:47 19:09:57 21° 67° (ENE) 19:13:07 437.475
PHONESAT 2.4 27 Jul 19:09:19 19:12:22 63° 179° (S) 19:15:26 2401.200-2431.200
DOVE 4 27 Jul 19:10:58 19:15:15 82° 257° (WSW) 19:19:48 437.250
CUBESAT XI-V 27 Jul 19:17:24 19:21:07 24° 293° (WNW) 19:24:50 437.345
CINEMA 3 27 Jul 19:19:08 19:23:15 36° 70° (ENE) 19:27:36 145.822/145.860
STRAND 1 27 Jul 19:20:12 19:24:17 24° 94° (E) 19:28:20 437.568
GOMX 1 27 Jul 19:21:30 19:25:04 27° 265° (W) 19:28:46 467.674
NOAA 18 27 Jul 19:23:29 19:28:06 27° 265° (W) 19:32:46 137.9125
BEESAT 3 27 Jul 19:29:30 19:33:08 36° 310° (NW) 19:36:49 437.485
O/OREOS (USA 219) 27 Jul 19:34:49 19:36:44 13° 98° (E) 19:38:40 437.305
BEESAT 2 27 Jul 19:36:16 19:40:09 55° 306° (NW) 19:44:05 435.950
HO-68 27 Jul 19:42:40 19:49:48 71° 70° (ENE) 19:56:58 435.675
SEEDS 27 Jul 19:44:11 19:48:03 36° 71° (ENE) 19:51:56 437.485
YUBILEINY 27 Jul 19:48:48 19:56:18 30° 67° (ENE) 20:03:43 435.215
PCSat 27 Jul 19:53:21 19:58:45 75° 301° (WNW) 20:04:13 145.827
COMPASS 1 27 Jul 19:55:07 19:58:53 33° 70° (ENE) 20:02:38 437.405
FUNcube-1 27 Jul 20:00:01 20:02:10 13° 62° (ENE) 20:04:20 145.935
UWE-3 27 Jul 20:00:21 20:03:49 21° 65° (ENE) 20:07:19 435.000/436.395/437.385
ZACube-1 27 Jul 20:00:54 20:03:22 15° 62° (ENE) 20:05:50 437.345
Cubesat XI-IV 27 Jul 20:02:41 20:04:47 12° 271° (W) 20:06:54 437.490
AIST 2 27 Jul 20:05:31 20:07:40 14° 109° (ESE) 20:09:49 435.215
CUBEBUG 2 27 Jul 20:22:23 20:26:49 50° 72° (ENE) 20:31:24 437.445
AAUSAT CUBESAT 2 27 Jul 20:22:33 20:26:36 53° 74° (ENE) 20:30:39 437.432
PRISM 27 Jul 20:23:17 20:24:19 11° 90° (E) 20:25:21 437.425
CANX-2 27 Jul 20:28:06 20:32:12 44° 262° (W) 20:36:18 2200.000
Oscar 11 27 Jul 20:39:44 20:43:39 34° 70° (ENE) 20:47:35 145.826/435.025
AUBIESAT-1 27 Jul 20:39:47 20:41:56 14° 56° (NE) 20:44:09 437.475
CUTE 1.7 + AOD 2 27 Jul 20:41:36 20:45:33 36° 263° (W) 20:49:31 437.475
DELFI C3 27 Jul 20:42:33 20:44:51 15° 65° (ENE) 20:47:08 145.870
PHONESAT 2.4 27 Jul 20:45:47 20:48:44 42° 194° (SSW) 20:51:39 2401.200-2431.200
CINEMA 3 27 Jul 20:56:53 21:00:29 23° 267° (W) 21:04:16 145.822/145.860
STRAND 1 27 Jul 20:58:49 21:03:37 42° 291° (WNW) 21:08:23 437.568
HUMSAT D 27 Jul 21:10:09 21:12:51 17° 65° (ENE) 21:15:34 437.325/437.525
O/OREOS (USA 219) 27 Jul 21:11:09 21:15:34 62° 295° (WNW) 21:20:00 437.305
Cosmos 2504 27 Jul 21:11:27 21:18:30 31° 68° (ENE) 21:25:05 435.465 / 435.565
ISS 27 Jul 21:11:48 21:14:55 45° 140° (SE) 21:18:03 145.825
Cosmos 2491 27 Jul 21:12:11 21:20:19 46° 88° (E) 21:28:26 435.465 / 435.565
AO-85 27 Jul 21:15:21 21:18:05 16° 37° (NE) 21:20:40 145.980
SEEDS 27 Jul 21:20:47 21:23:51 19° 267° (W) 21:26:57 437.485
COMPASS 1 27 Jul 21:31:20 21:34:30 21° 266° (W) 21:37:40 437.405
HO-68 27 Jul 21:32:44 21:38:06 22° 268° (W) 21:43:30 435.675
FUNcube-1 27 Jul 21:33:18 21:37:48 70° 259° (WSW) 21:42:24 145.935
ZACube-1 27 Jul 21:34:36 21:39:06 64° 260° (W) 21:43:40 437.345
UWE-3 27 Jul 21:35:39 21:39:58 41° 263° (W) 21:44:24 435.000/436.395/437.385
PCSat 27 Jul 21:40:03 21:43:07 15° 322° (NW) 21:46:11 145.827
AIST 2 27 Jul 21:41:38 21:45:40 56° 306° (NW) 21:49:45 435.215
YUBILEINY 27 Jul 21:45:01 21:53:43 64° 268° (W) 22:02:20 435.215
M-CUBED/EXP-1 PRIME 27 Jul 21:46:28 21:50:14 90° 235° (SW) 21:54:22 437.505
PRISM 27 Jul 21:55:57 22:00:01 62° 286° (WNW) 22:04:04 437.425
ESTCUBE 1 27 Jul 21:58:48 21:59:31 10° 60° (ENE) 22:00:15 437.505/2401.250
AAUSAT CUBESAT 2 27 Jul 22:00:29 22:02:23 13° 269° (W) 22:04:18 437.432
CUBEBUG 2 27 Jul 22:00:44 22:03:45 17° 270° (W) 22:06:48 437.445
AUBIESAT-1 27 Jul 22:12:07 22:15:52 55° 255° (WSW) 22:19:56 437.475
DELFI C3 27 Jul 22:15:31 22:19:20 44° 261° (W) 22:23:10 145.870
Oscar 11 27 Jul 22:16:28 22:19:51 22° 266° (W) 22:23:14 145.826/435.025
ANTELSAT 27 Jul 22:16:40 22:19:59 19° 92° (E) 22:23:14 437.575/2403.000
PHONESAT 2.4 27 Jul 22:23:15 22:24:45 13° 210° (SSW) 22:26:16 2401.200-2431.200
HUMSAT D 27 Jul 22:43:55 22:48:05 48° 261° (W) 22:52:17 437.325/437.525
ISS 27 Jul 22:48:34 22:51:27 29° 338° (NNW) 22:54:21 145.825
DX 1 27 Jul 22:52:48 22:55:31 16° 63° (ENE) 22:58:13 434.975-435.025
AISAT 27 Jul 22:54:31 22:58:01 24° 66° (ENE) 23:01:33 437.250
AO-85 27 Jul 22:54:46 22:59:11 79° 239° (WSW) 23:03:13 145.980
TIGRISAT 27 Jul 22:57:18 23:01:48 48° 99° (E) 23:06:10 435.000
Cosmos 2504 27 Jul 23:04:27 23:12:20 55° 270° (W) 23:19:38 435.465 / 435.565
UKube-1 27 Jul 23:05:02 23:07:52 17° 64° (ENE) 23:10:43 .
Cosmos 2491 27 Jul 23:09:11 23:17:13 40° 288° (WNW) 23:25:18 435.465 / 435.565
POPSAT HIP 1 27 Jul 23:12:06 23:12:35 10° 89° (E) 23:13:04 437.405
UNISAT 6 27 Jul 23:13:48 23:18:28 77° 102° (ESE) 23:23:00 437.425
AIST 1 27 Jul 23:22:37 23:24:27 12° 68° (ENE) 23:26:17
50 SAT 27 Jul 23:26:57 23:30:29 47° 73° (ENE) 23:34:01 437.505
QB50P2 27 Jul 23:30:55 23:33:59 19° 93° (E) 23:37:02 145.880/145.840
ESTCUBE 1 27 Jul 23:31:07 23:35:37 87° 259° (WSW) 23:40:08 437.505/2401.250
POLYITAN 1 27 Jul 23:33:32 23:36:39 19° 93° (E) 23:39:44 437.675
SPROUT 27 Jul 23:36:01 23:39:40 28° 68° (ENE) 23:43:21 437.525
CUBEBUG 1 27 Jul 23:44:18 23:48:36 86° 76° (ENE) 23:52:57 437.445
VELOX 1 27 Jul 23:44:53 23:49:15 77° 74° (ENE) 23:53:39 145.980
YUBILEINY 27 Jul 23:46:33 23:48:35 11° 289° (WNW) 23:50:36 435.215
ANTELSAT 27 Jul 23:52:29 23:56:54 43° 289° (WNW) 00:01:10 437.575/2403.000
NANOSAT C BR1 28 Jul 00:15:12 00:19:23 51° 100° (E) 00:23:32 145.865
DUCHIFAT 1 28 Jul 00:19:06 00:23:19 53° 100° (E) 00:27:28 145.980
ISS 28 Jul 00:26:35 00:28:40 16° 358° (N) 00:30:44 145.825
DX 1 28 Jul 00:27:07 00:31:18 49° 260° (W) 00:35:31 434.975-435.025
TISAT 1 28 Jul 00:28:58 00:32:26 26° 68° (ENE) 00:35:56 437.305
AISAT 28 Jul 00:30:23 00:34:20 32° 263° (W) 00:38:18 437.250
BUGSAT 1 28 Jul 00:30:51 00:34:41 31° 97° (E) 00:38:30 437.445
TIGRISAT 28 Jul 00:34:54 00:38:05 19° 296° (WNW) 00:41:14 435.000
QB50P1 28 Jul 00:38:00 00:42:19 82° 283° (WNW) 00:46:35 145.935-145.965
JAS-2 28 Jul 00:38:44 00:43:26 31° 97° (E) 00:48:28 435.910
UKube-1 28 Jul 00:39:26 00:43:33 45° 260° (W) 00:47:43 .
POPSAT HIP 1 28 Jul 00:44:33 00:48:50 71° 285° (WNW) 00:53:05 437.405
SWISSCUBE 28 Jul 00:52:23 00:54:17 12° 59° (ENE) 00:56:11 437.505
UNISAT 6 28 Jul 00:52:37 00:54:30 12° 300° (WNW) 00:56:22 437.425
